contact:dominique.lefevre@mio.osupytheas.fr, maurice.libes@osupytheas.fr, didier.mallarino@osupytheas.fr
Project:EMSO http://www.emso-fr.org/EMSO-France
Depth: 2436.0 m
Title:EMSO Ligure Ouest : Data MII capteur MICROCAT
DateTime_Computer,Latitude,Longitude,Temperature,Conductivity,Pressure,DateTime_Instrument
DateTime_Computer,Latitude,Longitude,degC,S m-1,dbar,DateTime_Instrument
2022-12-17T00:00:38Z,42.805,6.029,13.3012,4.60060,2470.646,2022-12-17T02:06:30Z
2022-12-17T00:03:41Z,42.805,6.029,13.3009,4.60059,2470.624,2022-12-17T02:09:33Z
2022-12-17T00:06:44Z,42.805,6.029,13.3011,4.60059,2470.646,2022-12-17T02:12:36Z
2022-12-17T00:09:47Z,42.805,6.029,13.3012,4.60060,2470.684,2022-12-17T02:15:39Z
2022-12-17T00:12:50Z,42.805,6.029,13.3010,4.60061,2470.646,2022-12-17T02:18:42Z
2022-12-17T00:15:53Z,42.805,6.029,13.3009,4.60059,2470.646,2022-12-17T02:21:45Z
2022-12-17T00:18:56Z,42.805,6.029,13.3011,4.60060,2470.646,2022-12-17T02:24:48Z
2022-12-17T00:21:59Z,42.805,6.029,13.3013,4.60060,2470.67,2022-12-17T02:27:51Z
2022-12-17T00:25:03Z,42.805,6.029,13.3009,4.60059,2470.624,2022-12-17T02:30:54Z
2022-12-17T00:28:06Z,42.805,6.029,13.3012,4.60062,2470.67,2022-12-17T02:33:58Z
2022-12-17T00:31:09Z,42.805,6.029,13.3013,4.60059,2470.633,2022-12-17T02:37:01Z
2022-12-17T00:34:12Z,42.805,6.029,13.3011,4.60059,2470.646,2022-12-17T02:40:04Z
2022-12-17T00:37:15Z,42.805,6.029,13.3011,4.60060,2470.67,2022-12-17T02:43:07Z
2022-12-17T00:40:18Z,42.805,6.029,13.3014,4.60060,2470.661,2022-12-17T02:46:10Z
2022-12-17T00:43:21Z,42.805,6.029,13.3008,4.60060,2470.646,2022-12-17T02:49:13Z
2022-12-17T00:46:24Z,42.805,6.029,13.3011,4.60059,2470.661,2022-12-17T02:52:16Z
2022-12-17T00:49:27Z,42.805,6.029,13.3014,4.60059,2470.684,2022-12-17T02:55:19Z
2022-12-17T00:52:30Z,42.805,6.029,13.3013,4.60061,2470.684,2022-12-17T02:58:22Z
2022-12-17T00:55:33Z,42.805,6.029,13.3009,4.60061,2470.624,2022-12-17T03:01:25Z
2022-12-17T00:58:36Z,42.805,6.029,13.3009,4.60062,2470.624,2022-12-17T03:04:28Z
2022-12-17T01:01:40Z,42.805,6.029,13.3011,4.60060,2470.67,2022-12-17T03:07:32Z
2022-12-17T01:04:43Z,42.805,6.029,13.3009,4.60062,2470.684,2022-12-17T03:10:35Z
2022-12-17T01:07:46Z,42.805,6.029,13.3014,4.60061,2470.624,2022-12-17T03:13:38Z
2022-12-17T01:10:49Z,42.805,6.029,13.3010,4.60059,2470.661,2022-12-17T03:16:41Z
2022-12-17T01:13:52Z,42.805,6.029,13.3009,4.60060,2470.646,2022-12-17T03:19:44Z
2022-12-17T01:16:55Z,42.805,6.029,13.3008,4.60059,2470.624,2022-12-17T03:22:47Z
2022-12-17T01:19:58Z,42.805,6.029,13.3010,4.60060,2470.67,2022-12-17T03:25:50Z
2022-12-17T01:23:01Z,42.805,6.029,13.3010,4.60061,2470.646,2022-12-17T03:28:53Z
2022-12-17T01:26:04Z,42.805,6.029,13.3009,4.60059,2470.646,2022-12-17T03:31:56Z
2022-12-17T01:29:07Z,42.805,6.029,13.3009,4.60060,2470.646,2022-12-17T03:34:59Z
2022-12-17T01:32:10Z,42.805,6.029,13.3011,4.60059,2470.624,2022-12-17T03:38:02Z
2022-12-17T01:35:13Z,42.805,6.029,13.3006,4.60059,2470.646,2022-12-17T03:41:06Z
2022-12-17T01:38:17Z,42.805,6.029,13.3010,4.60060,2470.646,2022-12-17T03:44:09Z
2022-12-17T01:41:20Z,42.805,6.029,13.3008,4.60061,2470.646,2022-12-17T03:47:12Z
2022-12-17T01:44:23Z,42.805,6.029,13.3009,4.60059,2470.67,2022-12-17T03:50:15Z
2022-12-17T01:47:26Z,42.805,6.029,13.3011,4.60059,2470.646,2022-12-17T03:53:18Z
2022-12-17T01:50:29Z,42.805,6.029,13.3006,4.60059,2470.624,2022-12-17T03:56:21Z
2022-12-17T01:53:32Z,42.805,6.029,13.3008,4.60059,2470.646,2022-12-17T03:59:24Z
2022-12-17T01:56:35Z,42.805,6.029,13.3008,4.60059,2470.684,2022-12-17T04:02:27Z
2022-12-17T01:59:38Z,42.805,6.029,13.3009,4.60060,2470.646,2022-12-17T04:05:30Z
2022-12-17T02:02:41Z,42.805,6.029,13.3011,4.60059,2470.67,2022-12-17T04:08:33Z
2022-12-17T02:05:44Z,42.805,6.029,13.3011,4.60059,2470.624,2022-12-17T04:11:36Z
2022-12-17T02:08:47Z,42.805,6.029,13.3009,4.60060,2470.661,2022-12-17T04:14:39Z
2022-12-17T02:11:51Z,42.805,6.029,13.3011,4.60059,2470.646,2022-12-17T04:17:43Z
2022-12-17T02:14:54Z,42.805,6.029,13.3010,4.60059,2470.646,2022-12-17T04:20:46Z
2022-12-17T02:17:57Z,42.805,6.029,13.3009,4.60059,2470.67,2022-12-17T04:23:49Z
2022-12-17T02:21:00Z,42.805,6.029,13.3011,4.60060,2470.67,2022-12-17T04:26:52Z
2022-12-17T02:24:03Z,42.805,6.029,13.3011,4.60060,2470.646,2022-12-17T04:29:55Z
2022-12-17T02:27:06Z,42.805,6.029,13.3011,4.60060,2470.679,2022-12-17T04:32:58Z
2022-12-17T02:30:09Z,42.805,6.029,13.3010,4.60059,2470.67,2022-12-17T04:36:01Z
2022-12-17T02:33:12Z,42.805,6.029,13.3006,4.60061,2470.624,2022-12-17T04:39:04Z
2022-12-17T02:36:15Z,42.805,6.029,13.3011,4.60059,2470.67,2022-12-17T04:42:07Z
2022-12-17T02:39:18Z,42.805,6.029,13.3011,4.60061,2470.624,2022-12-17T04:45:10Z
2022-12-17T02:42:21Z,42.805,6.029,13.3011,4.60060,2470.624,2022-12-17T04:48:13Z
2022-12-17T02:45:25Z,42.805,6.029,13.3013,4.60061,2470.624,2022-12-17T04:51:17Z
2022-12-17T02:48:28Z,42.805,6.029,13.3017,4.60060,2470.646,2022-12-17T04:54:20Z
2022-12-17T02:51:31Z,42.805,6.029,13.3008,4.60059,2470.624,2022-12-17T04:57:23Z
2022-12-17T02:54:34Z,42.805,6.029,13.3009,4.60059,2470.646,2022-12-17T05:00:26Z
2022-12-17T02:57:37Z,42.805,6.029,13.3007,4.60059,2470.646,2022-12-17T05:03:29Z
2022-12-17T03:00:40Z,42.805,6.029,13.3012,4.60062,2470.646,2022-12-17T05:06:32Z
2022-12-17T03:03:43Z,42.805,6.029,13.3009,4.60059,2470.661,2022-12-17T05:09:35Z
2022-12-17T03:06:46Z,42.805,6.029,13.3009,4.60060,2470.646,2022-12-17T05:12:38Z
2022-12-17T03:09:49Z,42.805,6.029,13.3010,4.60061,2470.633,2022-12-17T05:15:41Z
2022-12-17T03:12:52Z,42.805,6.029,13.3008,4.60059,2470.646,2022-12-17T05:18:44Z
2022-12-17T03:15:55Z,42.805,6.029,13.3011,4.60061,2470.661,2022-12-17T05:21:47Z
2022-12-17T03:18:58Z,42.805,6.029,13.3011,4.60060,2470.624,2022-12-17T05:24:51Z
2022-12-17T03:22:02Z,42.805,6.029,13.3014,4.60061,2470.624,2022-12-17T05:27:54Z
2022-12-17T03:25:05Z,42.805,6.029,13.3012,4.60059,2470.624,2022-12-17T05:30:57Z
2022-12-17T03:28:08Z,42.805,6.029,13.3006,4.60059,2470.67,2022-12-17T05:34:00Z
2022-12-17T03:31:11Z,42.805,6.029,13.3011,4.60060,2470.661,2022-12-17T05:37:03Z
2022-12-17T03:34:14Z,42.805,6.029,13.3006,4.60059,2470.646,2022-12-17T05:40:06Z
2022-12-17T03:37:17Z,42.805,6.029,13.3011,4.60059,2470.67,2022-12-17T05:43:09Z
2022-12-17T03:40:20Z,42.805,6.029,13.3009,4.60059,2470.624,2022-12-17T05:46:12Z
2022-12-17T03:43:23Z,42.805,6.029,13.3009,4.60060,2470.624,2022-12-17T05:49:15Z
2022-12-17T03:46:26Z,42.805,6.029,13.3009,4.60061,2470.637,2022-12-17T05:52:18Z
2022-12-17T03:49:29Z,42.805,6.029,13.3010,4.60058,2470.624,2022-12-17T05:55:21Z
2022-12-17T03:52:32Z,42.805,6.029,13.3012,4.60060,2470.637,2022-12-17T05:58:24Z
2022-12-17T03:55:35Z,42.805,6.029,13.3009,4.60059,2470.624,2022-12-17T06:01:28Z
2022-12-17T03:58:39Z,42.805,6.029,13.3007,4.60059,2470.646,2022-12-17T06:04:31Z
2022-12-17T04:01:42Z,42.805,6.029,13.3011,4.60060,2470.6,2022-12-17T06:07:34Z
2022-12-17T04:04:45Z,42.805,6.029,13.3012,4.60058,2470.624,2022-12-17T06:10:37Z
2022-12-17T04:07:48Z,42.805,6.029,13.3009,4.60059,2470.624,2022-12-17T06:13:40Z
2022-12-17T04:10:51Z,42.805,6.029,13.3011,4.60059,2470.6,2022-12-17T06:16:43Z
2022-12-17T04:13:54Z,42.805,6.029,13.3010,4.60060,2470.624,2022-12-17T06:19:46Z
2022-12-17T04:16:57Z,42.805,6.029,13.3007,4.60061,2470.637,2022-12-17T06:22:49Z
2022-12-17T04:20:00Z,42.805,6.029,13.3009,4.60060,2470.646,2022-12-17T06:25:52Z
2022-12-17T04:23:03Z,42.805,6.029,13.3009,4.60060,2470.661,2022-12-17T06:28:55Z
2022-12-17T04:26:06Z,42.805,6.029,13.3011,4.60061,2470.624,2022-12-17T06:31:58Z
2022-12-17T04:29:09Z,42.805,6.029,13.3013,4.60059,2470.646,2022-12-17T06:35:01Z
2022-12-17T04:32:12Z,42.805,6.029,13.3015,4.60060,2470.624,2022-12-17T06:38:05Z
2022-12-17T04:35:15Z,42.805,6.029,13.3010,4.60059,2470.637,2022-12-17T06:41:08Z
2022-12-17T04:38:19Z,42.805,6.029,13.3009,4.60059,2470.661,2022-12-17T06:44:11Z
2022-12-17T04:41:22Z,42.805,6.029,13.3012,4.60062,2470.646,2022-12-17T06:47:14Z
2022-12-17T04:44:25Z,42.805,6.029,13.3011,4.60060,2470.624,2022-12-17T06:50:17Z
2022-12-17T04:47:28Z,42.805,6.029,13.3009,4.60061,2470.614,2022-12-17T06:53:20Z
2022-12-17T04:50:31Z,42.805,6.029,13.3011,4.60060,2470.624,2022-12-17T06:56:23Z
2022-12-17T04:53:34Z,42.805,6.029,13.3011,4.60061,2470.646,2022-12-17T06:59:26Z
2022-12-17T04:56:37Z,42.805,6.029,13.3009,4.60064,2470.637,2022-12-17T07:02:29Z
2022-12-17T04:59:40Z,42.805,6.029,13.3009,4.60062,2470.624,2022-12-17T07:05:32Z
2022-12-17T05:02:43Z,42.805,6.029,13.3014,4.60060,2470.646,2022-12-17T07:08:35Z
2022-12-17T05:05:46Z,42.805,6.029,13.3009,4.60061,2470.624,2022-12-17T07:11:38Z
2022-12-17T05:08:49Z,42.805,6.029,13.3012,4.60061,2470.646,2022-12-17T07:14:42Z
2022-12-17T05:11:53Z,42.805,6.029,13.3011,4.60061,2470.624,2022-12-17T07:17:45Z
2022-12-17T05:14:56Z,42.805,6.029,13.3011,4.60061,2470.624,2022-12-17T07:20:48Z
2022-12-17T05:17:59Z,42.805,6.029,13.3014,4.60059,2470.6,2022-12-17T07:23:51Z
2022-12-17T05:21:02Z,42.805,6.029,13.3007,4.60061,2470.624,2022-12-17T07:26:54Z
2022-12-17T05:24:05Z,42.805,6.029,13.3010,4.60059,2470.624,2022-12-17T07:29:57Z
2022-12-17T05:27:08Z,42.805,6.029,13.3010,4.60060,2470.624,2022-12-17T07:33:00Z
2022-12-17T05:30:11Z,42.805,6.029,13.3014,4.60060,2470.624,2022-12-17T07:36:03Z
2022-12-17T05:33:14Z,42.805,6.029,13.3014,4.60060,2470.637,2022-12-17T07:39:06Z
2022-12-17T05:36:17Z,42.805,6.029,13.3014,4.60062,2470.624,2022-12-17T07:42:09Z
2022-12-17T05:39:20Z,42.805,6.029,13.3009,4.60061,2470.624,2022-12-17T07:45:12Z
2022-12-17T05:42:23Z,42.805,6.029,13.3015,4.60061,2470.624,2022-12-17T07:48:15Z
2022-12-17T05:45:26Z,42.805,6.029,13.3015,4.60060,2470.624,2022-12-17T07:51:19Z
2022-12-17T05:48:30Z,42.805,6.029,13.3008,4.60062,2470.624,2022-12-17T07:54:22Z
2022-12-17T05:51:33Z,42.805,6.029,13.3012,4.60063,2470.646,2022-12-17T07:57:25Z
2022-12-17T05:54:36Z,42.805,6.029,13.3015,4.60061,2470.624,2022-12-17T08:00:28Z
2022-12-17T05:57:39Z,42.805,6.029,13.3009,4.60059,2470.633,2022-12-17T08:03:31Z
2022-12-17T06:00:42Z,42.805,6.029,13.3011,4.60060,2470.6,2022-12-17T08:06:34Z
2022-12-17T06:03:45Z,42.805,6.029,13.3013,4.60061,2470.637,2022-12-17T08:09:37Z
2022-12-17T06:06:48Z,42.805,6.029,13.3013,4.60060,2470.646,2022-12-17T08:12:40Z
2022-12-17T06:09:51Z,42.805,6.029,13.3009,4.60059,2470.624,2022-12-17T08:15:43Z
2022-12-17T06:12:54Z,42.805,6.029,13.3012,4.60060,2470.624,2022-12-17T08:18:46Z
2022-12-17T06:15:57Z,42.805,6.029,13.3010,4.60060,2470.614,2022-12-17T08:21:49Z
2022-12-17T06:19:00Z,42.805,6.029,13.3012,4.60059,2470.624,2022-12-17T08:24:53Z
2022-12-17T06:22:03Z,42.805,6.029,13.3009,4.60061,2470.6,2022-12-17T08:27:56Z
2022-12-17T06:25:07Z,42.805,6.029,13.3011,4.60061,2470.6,2022-12-17T08:30:59Z
2022-12-17T06:28:10Z,42.805,6.029,13.3013,4.60062,2470.624,2022-12-17T08:34:02Z
2022-12-17T06:31:13Z,42.805,6.029,13.3009,4.60060,2470.661,2022-12-17T08:37:05Z
2022-12-17T06:34:16Z,42.805,6.029,13.3011,4.60061,2470.614,2022-12-17T08:40:08Z
2022-12-17T06:37:19Z,42.805,6.029,13.3011,4.60059,2470.614,2022-12-17T08:43:11Z
2022-12-17T06:40:22Z,42.805,6.029,13.3009,4.60060,2470.614,2022-12-17T08:46:14Z
2022-12-17T06:43:25Z,42.805,6.029,13.3013,4.60060,2470.614,2022-12-17T08:49:17Z
2022-12-17T06:46:28Z,42.805,6.029,13.3011,4.60061,2470.591,2022-12-17T08:52:20Z
2022-12-17T06:49:31Z,42.805,6.029,13.3011,4.60060,2470.646,2022-12-17T08:55:23Z
2022-12-17T06:52:34Z,42.805,6.029,13.3011,4.60061,2470.624,2022-12-17T08:58:27Z
2022-12-17T06:55:37Z,42.805,6.029,13.3010,4.60059,2470.624,2022-12-17T09:01:30Z
2022-12-17T06:58:40Z,42.805,6.029,13.3014,4.60060,2470.637,2022-12-17T09:04:33Z
2022-12-17T07:01:44Z,42.805,6.029,13.3013,4.60060,2470.637,2022-12-17T09:07:36Z
2022-12-17T07:04:47Z,42.805,6.029,13.3011,4.60062,2470.6,2022-12-17T09:10:39Z
2022-12-17T07:07:50Z,42.805,6.029,13.3009,4.60062,2470.6,2022-12-17T09:13:42Z
2022-12-17T07:10:53Z,42.805,6.029,13.3009,4.60060,2470.624,2022-12-17T09:16:45Z
2022-12-17T07:13:56Z,42.805,6.029,13.3011,4.60062,2470.646,2022-12-17T09:19:48Z
2022-12-17T07:16:59Z,42.805,6.029,13.3014,4.60062,2470.637,2022-12-17T09:22:51Z
2022-12-17T07:20:02Z,42.805,6.029,13.3012,4.60060,2470.637,2022-12-17T09:25:54Z
2022-12-17T07:23:05Z,42.805,6.029,13.3014,4.60061,2470.6,2022-12-17T09:28:57Z
2022-12-17T07:26:08Z,42.805,6.029,13.3011,4.60061,2470.624,2022-12-17T09:32:01Z
2022-12-17T07:29:11Z,42.805,6.029,13.3011,4.60062,2470.637,2022-12-17T09:35:04Z
2022-12-17T07:32:14Z,42.805,6.029,13.3009,4.60062,2470.624,2022-12-17T09:38:07Z
2022-12-17T07:35:18Z,42.805,6.029,13.3011,4.60060,2470.624,2022-12-17T09:41:10Z
2022-12-17T07:38:21Z,42.805,6.029,13.3013,4.60060,2470.624,2022-12-17T09:44:13Z
2022-12-17T07:41:24Z,42.805,6.029,13.3012,4.60061,2470.6,2022-12-17T09:47:16Z
2022-12-17T07:44:27Z,42.805,6.029,13.3009,4.60062,2470.637,2022-12-17T09:50:19Z
2022-12-17T07:47:30Z,42.805,6.029,13.3009,4.60062,2470.661,2022-12-17T09:53:22Z
2022-12-17T07:50:33Z,42.805,6.029,13.3012,4.60062,2470.624,2022-12-17T09:56:25Z
2022-12-17T07:53:36Z,42.805,6.029,13.3013,4.60063,2470.624,2022-12-17T09:59:28Z
2022-12-17T07:56:39Z,42.805,6.029,13.3012,4.60062,2470.646,2022-12-17T10:02:31Z
2022-12-17T07:59:42Z,42.805,6.029,13.3011,4.60062,2470.624,2022-12-17T10:05:34Z
2022-12-17T08:02:45Z,42.805,6.029,13.3013,4.60061,2470.661,2022-12-17T10:08:38Z
2022-12-17T08:05:48Z,42.805,6.029,13.3009,4.60061,2470.661,2022-12-17T10:11:41Z
2022-12-17T08:08:52Z,42.805,6.029,13.3012,4.60061,2470.637,2022-12-17T10:14:44Z
2022-12-17T08:11:55Z,42.805,6.029,13.3011,4.60062,2470.624,2022-12-17T10:17:47Z
2022-12-17T08:14:58Z,42.805,6.029,13.3013,4.60061,2470.624,2022-12-17T10:20:50Z
2022-12-17T08:18:01Z,42.805,6.029,13.3009,4.60062,2470.624,2022-12-17T10:23:53Z
2022-12-17T08:21:04Z,42.805,6.029,13.3014,4.60063,2470.646,2022-12-17T10:26:56Z
2022-12-17T08:24:07Z,42.805,6.029,13.3009,4.60061,2470.6,2022-12-17T10:29:59Z
2022-12-17T08:27:10Z,42.805,6.029,13.3012,4.60063,2470.646,2022-12-17T10:33:02Z
2022-12-17T08:30:13Z,42.805,6.029,13.3011,4.60063,2470.637,2022-12-17T10:36:05Z
2022-12-17T08:33:16Z,42.805,6.029,13.3014,4.60062,2470.624,2022-12-17T10:39:08Z
2022-12-17T08:36:19Z,42.805,6.029,13.3015,4.60061,2470.624,2022-12-17T10:42:12Z
2022-12-17T08:39:22Z,42.805,6.029,13.3010,4.60060,2470.646,2022-12-17T10:45:15Z
2022-12-17T08:42:26Z,42.805,6.029,13.3014,4.60062,2470.661,2022-12-17T10:48:18Z
2022-12-17T08:45:29Z,42.805,6.029,13.3009,4.60061,2470.661,2022-12-17T10:51:21Z
2022-12-17T08:48:32Z,42.805,6.029,13.3010,4.60062,2470.646,2022-12-17T10:54:24Z
2022-12-17T08:51:35Z,42.805,6.029,13.3014,4.60062,2470.661,2022-12-17T10:57:27Z
2022-12-17T08:54:38Z,42.805,6.029,13.3009,4.60061,2470.67,2022-12-17T11:00:30Z
2022-12-17T08:57:41Z,42.805,6.029,13.3014,4.60061,2470.646,2022-12-17T11:03:33Z
2022-12-17T09:00:44Z,42.805,6.029,13.3011,4.60062,2470.646,2022-12-17T11:06:36Z
2022-12-17T09:03:47Z,42.805,6.029,13.3010,4.60061,2470.661,2022-12-17T11:09:39Z
2022-12-17T09:06:50Z,42.805,6.029,13.3011,4.60061,2470.684,2022-12-17T11:12:43Z
2022-12-17T09:09:53Z,42.805,6.029,13.3011,4.60060,2470.646,2022-12-17T11:15:46Z
2022-12-17T09:12:56Z,42.805,6.029,13.3012,4.60062,2470.661,2022-12-17T11:18:49Z
2022-12-17T09:16:00Z,42.805,6.029,13.3011,4.60062,2470.646,2022-12-17T11:21:52Z
2022-12-17T09:19:03Z,42.805,6.029,13.3011,4.60061,2470.646,2022-12-17T11:24:55Z
2022-12-17T09:22:06Z,42.805,6.029,13.3014,4.60061,2470.61,2022-12-17T11:27:58Z
2022-12-17T09:25:09Z,42.805,6.029,13.3010,4.60060,2470.67,2022-12-17T11:31:01Z
2022-12-17T09:28:12Z,42.805,6.029,13.3014,4.60062,2470.646,2022-12-17T11:34:04Z
2022-12-17T09:31:15Z,42.805,6.029,13.3012,4.60063,2470.646,2022-12-17T11:37:07Z
2022-12-17T09:34:18Z,42.805,6.029,13.3013,4.60062,2470.67,2022-12-17T11:40:10Z
2022-12-17T09:37:21Z,42.805,6.029,13.3011,4.60062,2470.684,2022-12-17T11:43:13Z
2022-12-17T09:40:24Z,42.805,6.029,13.3011,4.60059,2470.646,2022-12-17T11:46:17Z
2022-12-17T09:43:27Z,42.805,6.029,13.3013,4.60062,2470.646,2022-12-17T11:49:20Z
2022-12-17T09:46:30Z,42.805,6.029,13.3013,4.60062,2470.624,2022-12-17T11:52:23Z
2022-12-17T09:49:34Z,42.805,6.029,13.3010,4.60060,2470.646,2022-12-17T11:55:26Z
2022-12-17T09:52:37Z,42.805,6.029,13.3009,4.60062,2470.693,2022-12-17T11:58:29Z
2022-12-17T09:55:40Z,42.805,6.029,13.3014,4.60061,2470.693,2022-12-17T12:01:32Z
2022-12-17T09:58:43Z,42.805,6.029,13.3010,4.60061,2470.693,2022-12-17T12:04:35Z
2022-12-17T10:01:46Z,42.805,6.029,13.3011,4.60061,2470.67,2022-12-17T12:07:38Z
2022-12-17T10:04:49Z,42.805,6.029,13.3009,4.60062,2470.646,2022-12-17T12:10:41Z
2022-12-17T10:07:52Z,42.805,6.029,13.3010,4.60063,2470.693,2022-12-17T12:13:44Z
2022-12-17T10:10:55Z,42.805,6.029,13.3014,4.60062,2470.693,2022-12-17T12:16:47Z
2022-12-17T10:13:58Z,42.805,6.029,13.3011,4.60065,2470.67,2022-12-17T12:19:51Z
2022-12-17T10:17:01Z,42.805,6.029,13.3012,4.60064,2470.717,2022-12-17T12:22:54Z
2022-12-17T10:20:04Z,42.805,6.029,13.3009,4.60061,2470.679,2022-12-17T12:25:57Z
2022-12-17T10:23:08Z,42.805,6.029,13.3013,4.60061,2470.717,2022-12-17T12:29:00Z
2022-12-17T10:26:11Z,42.805,6.029,13.3011,4.60062,2470.693,2022-12-17T12:32:03Z
2022-12-17T10:29:14Z,42.805,6.029,13.3015,4.60062,2470.73,2022-12-17T12:35:06Z
2022-12-17T10:32:17Z,42.805,6.029,13.3012,4.60064,2470.693,2022-12-17T12:38:09Z
2022-12-17T10:35:20Z,42.805,6.029,13.3011,4.60061,2470.693,2022-12-17T12:41:12Z
2022-12-17T10:38:23Z,42.805,6.029,13.3010,4.60062,2470.693,2022-12-17T12:44:15Z
2022-12-17T10:41:26Z,42.805,6.029,13.3010,4.60062,2470.693,2022-12-17T12:47:18Z
2022-12-17T10:44:29Z,42.805,6.029,13.3008,4.60062,2470.693,2022-12-17T12:50:21Z
2022-12-17T10:47:32Z,42.805,6.029,13.3014,4.60063,2470.717,2022-12-17T12:53:25Z
2022-12-17T10:50:35Z,42.805,6.029,13.3014,4.60061,2470.73,2022-12-17T12:56:28Z
2022-12-17T10:53:38Z,42.805,6.029,13.3009,4.60062,2470.707,2022-12-17T12:59:31Z
2022-12-17T10:56:42Z,42.805,6.029,13.3012,4.60061,2470.693,2022-12-17T13:02:34Z
2022-12-17T10:59:45Z,42.805,6.029,13.3011,4.60063,2470.707,2022-12-17T13:05:37Z
2022-12-17T11:02:48Z,42.805,6.029,13.3011,4.60064,2470.707,2022-12-17T13:08:40Z
2022-12-17T11:05:51Z,42.805,6.029,13.3012,4.60063,2470.717,2022-12-17T13:11:43Z
2022-12-17T11:08:54Z,42.805,6.029,13.3009,4.60062,2470.717,2022-12-17T13:14:46Z
2022-12-17T11:11:57Z,42.805,6.029,13.3014,4.60063,2470.717,2022-12-17T13:17:49Z
2022-12-17T11:15:00Z,42.805,6.029,13.3011,4.60061,2470.763,2022-12-17T13:20:52Z
2022-12-17T11:18:03Z,42.805,6.029,13.3013,4.60063,2470.74,2022-12-17T13:23:56Z
2022-12-17T11:21:06Z,42.805,6.029,13.3011,4.60062,2470.693,2022-12-17T13:26:59Z
2022-12-17T11:24:09Z,42.805,6.029,13.3012,4.60062,2470.717,2022-12-17T13:30:02Z
2022-12-17T11:27:12Z,42.805,6.029,13.3010,4.60062,2470.74,2022-12-17T13:33:05Z
2022-12-17T11:30:16Z,42.805,6.029,13.3011,4.60062,2470.717,2022-12-17T13:36:08Z
2022-12-17T11:33:19Z,42.805,6.029,13.3009,4.60062,2470.754,2022-12-17T13:39:11Z
2022-12-17T11:36:22Z,42.805,6.029,13.3014,4.60062,2470.717,2022-12-17T13:42:14Z
2022-12-17T11:39:25Z,42.805,6.029,13.3006,4.60062,2470.74,2022-12-17T13:45:17Z
2022-12-17T11:42:28Z,42.805,6.029,13.3013,4.60061,2470.693,2022-12-17T13:48:20Z
2022-12-17T11:45:31Z,42.805,6.029,13.3009,4.60062,2470.754,2022-12-17T13:51:23Z
2022-12-17T11:48:34Z,42.805,6.029,13.3013,4.60062,2470.717,2022-12-17T13:54:26Z
2022-12-17T11:51:37Z,42.805,6.029,13.3012,4.60062,2470.754,2022-12-17T13:57:30Z
2022-12-17T11:54:40Z,42.805,6.029,13.3005,4.60062,2470.717,2022-12-17T14:00:33Z
2022-12-17T11:57:43Z,42.805,6.029,13.3012,4.60062,2470.754,2022-12-17T14:03:36Z
2022-12-17T12:00:46Z,42.805,6.029,13.3012,4.60063,2470.73,2022-12-17T14:06:39Z
2022-12-17T12:03:50Z,42.805,6.029,13.3007,4.60062,2470.74,2022-12-17T14:09:42Z
2022-12-17T12:06:53Z,42.805,6.029,13.3008,4.60062,2470.717,2022-12-17T14:12:45Z
2022-12-17T12:09:56Z,42.805,6.029,13.3011,4.60063,2470.74,2022-12-17T14:15:48Z
2022-12-17T12:12:59Z,42.805,6.029,13.3011,4.60062,2470.763,2022-12-17T14:18:51Z
2022-12-17T12:16:02Z,42.805,6.029,13.3011,4.60062,2470.703,2022-12-17T14:21:54Z
2022-12-17T12:19:05Z,42.805,6.029,13.3011,4.60062,2470.73,2022-12-17T14:24:57Z
2022-12-17T12:22:08Z,42.805,6.029,13.3015,4.60062,2470.777,2022-12-17T14:28:00Z
2022-12-17T12:25:11Z,42.805,6.029,13.3010,4.60062,2470.73,2022-12-17T14:31:04Z
2022-12-17T12:28:14Z,42.805,6.029,13.3012,4.60062,2470.717,2022-12-17T14:34:07Z
2022-12-17T12:31:17Z,42.805,6.029,13.3011,4.60062,2470.777,2022-12-17T14:37:10Z
2022-12-17T12:34:20Z,42.805,6.029,13.3009,4.60061,2470.777,2022-12-17T14:40:13Z
2022-12-17T12:37:24Z,42.805,6.029,13.3011,4.60062,2470.754,2022-12-17T14:43:16Z
2022-12-17T12:40:27Z,42.805,6.029,13.3014,4.60063,2470.754,2022-12-17T14:46:19Z
2022-12-17T12:43:30Z,42.805,6.029,13.3011,4.60062,2470.717,2022-12-17T14:49:22Z
2022-12-17T12:46:33Z,42.805,6.029,13.3011,4.60062,2470.763,2022-12-17T14:52:25Z
2022-12-17T12:49:36Z,42.805,6.029,13.3013,4.60062,2470.777,2022-12-17T14:55:28Z
2022-12-17T12:52:39Z,42.805,6.029,13.3011,4.60063,2470.777,2022-12-17T14:58:31Z
2022-12-17T12:55:42Z,42.805,6.029,13.3010,4.60064,2470.74,2022-12-17T15:01:34Z
2022-12-17T12:58:45Z,42.805,6.029,13.3013,4.60062,2470.74,2022-12-17T15:04:38Z
2022-12-17T13:01:48Z,42.805,6.029,13.3011,4.60062,2470.763,2022-12-17T15:07:41Z
2022-12-17T13:04:51Z,42.805,6.029,13.3012,4.60062,2470.763,2022-12-17T15:10:44Z
2022-12-17T13:07:54Z,42.805,6.029,13.3011,4.60062,2470.787,2022-12-17T15:13:47Z
2022-12-17T13:10:58Z,42.805,6.029,13.3013,4.60062,2470.787,2022-12-17T15:16:50Z
2022-12-17T13:14:01Z,42.805,6.029,13.3009,4.60062,2470.787,2022-12-17T15:19:53Z
2022-12-17T13:17:04Z,42.805,6.029,13.3013,4.60062,2470.777,2022-12-17T15:22:56Z
2022-12-17T13:20:07Z,42.805,6.029,13.3010,4.60063,2470.8,2022-12-17T15:25:59Z
2022-12-17T13:23:10Z,42.805,6.029,13.3006,4.60062,2470.773,2022-12-17T15:29:02Z
2022-12-17T13:26:13Z,42.805,6.029,13.3011,4.60063,2470.763,2022-12-17T15:32:05Z
2022-12-17T13:29:16Z,42.805,6.029,13.3012,4.60061,2470.763,2022-12-17T15:35:08Z
2022-12-17T13:32:19Z,42.805,6.029,13.3013,4.60063,2470.74,2022-12-17T15:38:12Z
2022-12-17T13:35:22Z,42.805,6.029,13.3012,4.60062,2470.8,2022-12-17T15:41:15Z
2022-12-17T13:38:25Z,42.805,6.029,13.3013,4.60062,2470.787,2022-12-17T15:44:18Z
2022-12-17T13:41:28Z,42.805,6.029,13.3009,4.60063,2470.787,2022-12-17T15:47:21Z
2022-12-17T13:44:32Z,42.805,6.029,13.3012,4.60062,2470.787,2022-12-17T15:50:24Z
2022-12-17T13:47:35Z,42.805,6.029,13.3014,4.60062,2470.777,2022-12-17T15:53:27Z
2022-12-17T13:50:38Z,42.805,6.029,13.3012,4.60063,2470.777,2022-12-17T15:56:30Z
2022-12-17T13:53:41Z,42.805,6.029,13.3015,4.60064,2470.763,2022-12-17T15:59:33Z
2022-12-17T13:56:44Z,42.805,6.029,13.3018,4.60065,2470.763,2022-12-17T16:02:36Z
2022-12-17T13:59:47Z,42.805,6.029,13.3011,4.60062,2470.763,2022-12-17T16:05:39Z
2022-12-17T14:02:50Z,42.805,6.029,13.3017,4.60062,2470.777,2022-12-17T16:08:43Z
2022-12-17T14:05:53Z,42.805,6.029,13.3014,4.60062,2470.8,2022-12-17T16:11:46Z
2022-12-17T14:08:56Z,42.805,6.029,13.3014,4.60062,2470.74,2022-12-17T16:14:49Z
2022-12-17T14:11:59Z,42.805,6.029,13.3015,4.60062,2470.763,2022-12-17T16:17:52Z
2022-12-17T14:15:02Z,42.805,6.029,13.3012,4.60062,2470.74,2022-12-17T16:20:55Z
2022-12-17T14:18:06Z,42.805,6.029,13.3012,4.60061,2470.777,2022-12-17T16:23:58Z
2022-12-17T14:21:09Z,42.805,6.029,13.3012,4.60061,2470.763,2022-12-17T16:27:01Z
2022-12-17T14:24:12Z,42.805,6.029,13.3012,4.60062,2470.8,2022-12-17T16:30:04Z
2022-12-17T14:27:15Z,42.805,6.029,13.3014,4.60061,2470.74,2022-12-17T16:33:07Z
2022-12-17T14:30:18Z,42.805,6.029,13.3011,4.60062,2470.824,2022-12-17T16:36:10Z
2022-12-17T14:33:21Z,42.805,6.029,13.3013,4.60062,2470.777,2022-12-17T16:39:13Z
2022-12-17T14:36:24Z,42.805,6.029,13.3009,4.60062,2470.74,2022-12-17T16:42:16Z
2022-12-17T14:39:27Z,42.805,6.029,13.3010,4.60061,2470.763,2022-12-17T16:45:20Z
2022-12-17T14:42:30Z,42.805,6.029,13.3014,4.60062,2470.763,2022-12-17T16:48:23Z
2022-12-17T14:45:33Z,42.805,6.029,13.3009,4.60062,2470.74,2022-12-17T16:51:26Z
2022-12-17T14:48:36Z,42.805,6.029,13.3013,4.60062,2470.74,2022-12-17T16:54:29Z
2022-12-17T14:51:40Z,42.805,6.029,13.3014,4.60062,2470.763,2022-12-17T16:57:32Z
2022-12-17T14:54:43Z,42.805,6.029,13.3011,4.60064,2470.717,2022-12-17T17:00:35Z
2022-12-17T14:57:46Z,42.805,6.029,13.3014,4.60063,2470.787,2022-12-17T17:03:38Z
2022-12-17T15:00:49Z,42.805,6.029,13.3011,4.60062,2470.754,2022-12-17T17:06:41Z